Pasco, WA
on Tuesday, December 4, 2012

Tuesday
Previous Day Next Day
Daily Summary
 ActualAverageRecord
Temperature
Mean Temperature °F 35°F  
Max Temperature 62°F 42°F 66°F (2007)
Min Temperature 46°F 28°F 7°F (2013)
Degree Days
Heating Degree Days 11 30  
Month to date heating degree days 54 118  
Since 1 July heating degree days 1151 1347  
Cooling Degree Days 0 0  
Month to date cooling degree days 0 0  
Year to date cooling degree days 788 710  
Growing Degree Days4 (Base °F )  
Moisture
Dew Point 44°F   
Average Humidity 70    
Maximum Humidity 86    
Minimum Humidity 54    
Precipitation
Precipitation 0.07 in 0.03 in 0.50 in (1950)
Month to date precipitation 0.27 0.12  
Year to date precipitation 8.83 7.74  
Snow
Snow 0.00 in in in ()
Snow Depth 0.00 in   
Wind
Wind Speed 11 mph   
Max Wind Speed 25 mph   
Max Gust Speed 33 mph   
Visibility 10 miles   
Events Rain   

Key: T is trace of precipitation, MM is missing value
Source: NWS Daily Summary
Time(PST)TemperatureDew PointHumidity Pressure Visibility Wind DirectionWind SpeedGust SpeedPrecipitationEvents Conditions
12:53 AM 51.1°F 35.1°F 54% 29.79 in 10.0 miles SE 12.7 mph - N/A   Scattered Clouds
1:23 AM 53.6°F 37.4°F 54% 29.81 in 10.0 miles SSW 24.2 mph 33.4 mph 0.00 in Rain Light Rain
1:53 AM 51.1°F 39.9°F 66% 29.80 in 10.0 miles South 13.8 mph - 0.00 in Rain Light Rain
2:53 AM 48.0°F 43.0°F 83% 29.77 in 10.0 miles SE 11.5 mph - 0.06 in Rain Light Rain
3:53 AM 46.0°F 43.0°F 89% 29.75 in 10.0 miles ENE 6.9 mph - 0.01 in Rain Light Rain
4:53 AM 46.9°F 43.0°F 86% 29.74 in 10.0 miles East 9.2 mph - 0.00 in   Overcast
5:53 AM 48.9°F 44.1°F 83% 29.76 in 10.0 miles ESE 8.1 mph - N/A   Overcast
6:53 AM 51.1°F 44.1°F 77% 29.78 in 10.0 miles East 3.5 mph - N/A   Overcast
7:53 AM 53.1°F 44.1°F 71% 29.79 in 10.0 miles Variable 5.8 mph - N/A   Overcast
8:53 AM 52.0°F 45.0°F 77% 29.81 in 10.0 miles East 5.8 mph - N/A   Overcast
9:53 AM 54.0°F 45.0°F 72% 29.82 in 10.0 miles SE 11.5 mph - N/A   Overcast
10:53 AM 55.9°F 46.0°F 69% 29.81 in 10.0 miles SE 9.2 mph - N/A   Overcast
11:53 AM 55.0°F 46.9°F 74% 29.79 in 10.0 miles SSE 3.5 mph - N/A   Overcast
12:53 PM 59.0°F 46.9°F 64% 29.79 in 10.0 miles South 8.1 mph - 0.00 in   Overcast
1:53 PM 61.0°F 46.0°F 58% 29.77 in 10.0 miles SSW 16.1 mph 23.0 mph N/A   Mostly Cloudy
2:53 PM 60.1°F 46.9°F 62% 29.76 in 10.0 miles SSW 15.0 mph - N/A   Partly Cloudy
3:53 PM 59.0°F 46.9°F 64% 29.76 in 10.0 miles SSW 9.2 mph - N/A   Partly Cloudy
4:53 PM 60.1°F 46.0°F 60% 29.75 in 10.0 miles South 15.0 mph 21.9 mph N/A   Mostly Cloudy
5:53 PM 60.1°F 46.0°F 60% 29.74 in 10.0 miles South 12.7 mph - N/A   Overcast
6:53 PM 61.0°F 44.1°F 54% 29.73 in 10.0 miles South 17.3 mph - N/A   Overcast
7:53 PM 57.9°F 45.0°F 62% 29.74 in 10.0 miles SE 5.8 mph - N/A   Overcast
8:53 PM 57.9°F 45.0°F 62% 29.74 in 10.0 miles WNW 3.5 mph - N/A   Overcast
9:53 PM 57.0°F 45.0°F 64% 29.74 in 10.0 miles SW 5.8 mph - N/A   Overcast
10:53 PM 55.0°F 46.0°F 72% 29.73 in 10.0 miles WNW 3.5 mph - N/A   Overcast
11:53 PM 55.9°F 46.9°F 72% 29.77 in 10.0 miles WSW 12.7 mph - N/A   Overcast
Moon Phase
Dec. 04 Dec. 06 Dec. 13 Dec. 20 Dec. 28
Sunrise:07:22 AM (PST) Moon Rise:10:17 PM (PST)12/4
Sunset:04:10 PM (PST) Moon Set:11:07 AM (PST)12/4

Copyright © 2014 The Weather Underground, Inc.